Starlink 32760

operational
NORAD ID: 62568 Int'l Des: 2025-006 Owner: SPXS Country: US Constellation: starlink
LEOCIRCULAR

Starlink 32760について

説明を読み込み中...

リアルタイム位置

3D地球を読み込み中...

次回通過

高度履歴

Altitude vs Time

uPlot chart will show altitude changes over time

軌道要素

1 62568U 25006Q 25302.34641300 .00037109 00000-0 13515-2 0 9990
2 62568 43.0010 314.4763 0001765 278.7516 81.3136 15.27573598 44776
Epoch: Oct 29, 2025 • Age: 12 hours

現在のステータス

高度 491.0 km
速度 7.62 km/s
衛星直下点 -32.11°S, 169.32°W
打ち上げ日 Jan 10, 2025
運用期間 0.7 years
タイプ internet

技術仕様

分類 Payload
質量 730.00 kg
乾燥質量 700.00 kg
総質量 730.00 kg
長さ 0.30 m
直径 4.10 m
スパン 29.00 m
形状 Box + pan
製造者 SPXS
バスタイプ Starlink V2M
フェーズステータス In Orbit
所有者/国 SPXS/US

大規模コンステレーション

Loading constellations...